#timestamp,LO_Frequency,Hit,StdDev 
1604984415.0,286047000.7,N
1604984415.9,286047000.7,N
1604984435.7,286047000.4,N
1604984455.6,286047000.4,N
1604984475.4,286047000.6,N
1604984495.2,286046999.9,N
1604984515.1,286047000.5,N
1604984516.0,286047000.5,N
1604984535.8,286047002.8,Y
1604984555.6,286046998.1,P
1604984575.5,286047001.0,N
1604984595.3,286046998.2,N
1604984615.1,286047001.2,N
1604984635.9,286047000.6,N
1604984655.7,286047001.1,N
1604984675.5,286046998.3,N
1604984695.4,286047001.1,N
1604984715.2,286047000.4,N
1604984735.0,286047001.0,N
1604984735.9,286047001.0,N
1604984755.8,286047000.9,N
1604984775.6,286047000.9,N
1604984795.4,286047000.7,N
1604984815.3,286047001.0,N
1604984835.1,286047001.0,N
1604984855.8,286046998.1,N
1604984875.7,286046998.8,N
1604984895.5,286046998.9,N
1604984915.3,286046999.0,N
1604984935.2,286046998.3,N
1604984955.0,286047001.2,N
1604984955.9,286047001.2,N
1604984975.7,286046998.1,N
1604984995.6,286047001.1,N
1604985015.4,286047000.9,N
1604985035.2,286047001.1,N
1604985055.1,286047001.2,N
1604985056.0,286047001.2,N
1604985075.8,286046998.1,N
1604985095.6,286046998.5,N
1604985115.5,286046998.5,N
1604985135.3,286046996.9,N
1604985155.1,286046996.6,N
1604985175.9,286046999.6,N
1604985195.7,286046998.4,N
1604985215.5,286046999.1,N
1604985235.4,286046996.5,N
1604985255.2,286046999.4,N
1604985275.0,286046998.1,N
1604985275.9,286046998.1,N
1604985295.8,286046999.4,N
1604985315.6,286047000.7,N
1604985335.4,286046998.8,N
1604985355.3,286046996.6,N
1604985375.1,286046999.3,N
1604985395.8,286046999.0,N
1604985415.7,286046999.1,N
1604985435.5,286046999.3,N
1604985455.3,286046999.6,N
1604985475.2,286046998.1,N
1604985495.9,286046999.0,N
1604985515.7,286046999.1,N
1604985535.6,286046999.6,N
1604985555.4,286046996.9,N
1604985575.2,286046997.2,N
1604985595.1,286046996.9,N
1604985596.0,286046996.9,N
1604985615.8,286046997.5,N
1604985635.6,286046996.9,N
1604985655.5,286046997.4,N
1604985675.3,286046997.4,N
1604985695.1,286046994.9,Y
1604985715.9,286046996.6,P
1604985735.7,286046999.5,N
1604985755.5,286046996.5,N
1604985775.4,286046997.2,N
1604985795.2,286046999.6,N
1604985815.0,286046999.1,N
1604985815.9,286046999.1,N
1604985835.8,286046996.9,N
1604985855.6,286046999.4,N
1604985875.4,286046997.3,N
1604985895.3,286046996.7,N
1604985915.1,286046999.5,N
1604985916.0,286046999.5,N
1604985935.8,286046996.5,N
1604985955.7,286046996.6,N
1604985975.5,286046998.9,N
1604985995.3,286046999.4,N
1604986015.2,286046999.4,N
1604986035.9,286047001.2,N
1604986055.7,286046999.2,N
1604986075.6,286046996.8,N
1604986095.4,286046997.1,N
1604986115.2,286046999.5,N
1604986135.1,286046998.9,N
1604986136.0,286046998.9,N
1604986155.8,286046999.4,N
1604986175.6,286046999.1,N
1604986195.5,286046996.7,N
1604986215.3,286046997.2,N
1604986235.1,286046996.5,N
1604986255.9,286046998.5,N
1604986275.7,286046998.6,N
1604986295.5,286047000.9,N
1604986315.4,286047000.7,N
1604986335.2,286046998.3,N
1604986355.0,286046998.9,N
1604986355.9,286046998.9,N
1604986375.8,286046999.4,N
1604986395.6,286046998.9,N
1604986415.4,286047001.2,N
1604986435.3,286047001.1,N
1604986455.1,286046998.1,N
1604986456.0,286046998.1,N
1604986475.8,286047001.1,N
1604986495.7,286047000.0,N
1604986515.5,286047000.4,N
1604986535.3,286047000.2,N
1604986555.2,286047000.2,N
1604986575.9,286047002.4,N
1604986595.7,286046999.8,N
1604986615.6,286047002.1,N
1604986635.4,286047002.5,N
1604986655.2,286047001.4,N
1604986675.1,286047001.5,N
1604986676.0,286047001.5,N
1604986695.8,286047001.8,N
1604986715.6,286047001.8,N
1604986735.5,286047001.4,N
1604986755.3,286047001.6,N
1604986775.1,286047001.4,N
1604986795.9,286047002.8,N
1604986815.7,286047002.5,N
1604986835.5,286047002.0,N
1604986855.4,286047002.4,N
1604986875.2,286047001.8,N
1604986895.0,286047001.8,N
1604986895.9,286047001.8,N
1604986915.8,286047003.8,Y
1604986935.6,286047002.5,P
1604986955.4,286047002.2,P
1604986975.3,286047002.6,P
1604986995.1,286047002.0,Y
1604986996.0,286047002.0,P
1604987015.8,286047002.8,P
1604987035.7,286047002.8,P
1604987055.5,286047001.9,Y
1604987075.3,286046998.7,P
1604987095.2,286047000.8,N
1604987145.9,286046999.7,E
1604987155.9,286047000.1,N
1604987175.7,286047002.8,P
1604987195.5,286047002.3,N
1604987215.4,286047001.9,N
1604987235.2,286047001.7,N
1604987255.0,286047002.5,N
1604987255.9,286047002.5,N
1604987275.8,286047002.5,N
1604987295.6,286047001.5,N
1604987315.4,286047001.5,N
1604987335.3,286047004.0,Y
1604987355.1,286047000.1,P
1604987356.0,286047000.1,N
1604987375.8,286047002.8,P
1604987395.7,286047002.8,N
1604987415.5,286047002.6,N
1604987435.3,286047002.2,N
1604987455.2,286047002.2,N
1604987475.9,286047002.3,N
1604987495.7,286047002.0,N
1604987515.6,286047004.2,Y
1604987535.4,286047000.5,P
1604987555.2,286046999.8,N
1604987575.0,286047002.5,N
1604987576.0,286047002.5,N
1604987595.8,286047002.7,N
1604987615.6,286047002.4,N
1604987635.4,286046999.8,N
1604987655.3,286047001.9,N
1604987675.1,286047001.4,N
1604987695.8,286047001.6,N
1604987715.7,286047003.9,Y
1604987735.5,286047001.6,P
1604987755.3,286047002.0,P
1604987775.2,286047004.3,P
1604987795.0,286047004.0,Y
1604987795.9,286047004.0,P
1604987815.8,286047002.8,P
1604987835.6,286047000.7,N
1604987855.4,286047000.1,N
1604987875.3,286047000.1,N
1604987895.1,286047002.7,N
1604987896.0,286047002.7,N
1604987915.8,286047001.9,N
1604987935.7,286047002.5,N
1604987955.5,286047004.1,Y
1604987975.3,286046999.7,P
1604987995.2,286046999.7,N
